RYR79JP EDDG-LEMG

Flight info

Callsign RYR79JP
Flight time 2h 55m
Altitude 37000
Route DOMEG1E DOMEG N853 QATJA Y841 KENUM DCT GESLO N852 DIK UN857 TOLVU DCT RAPOR DCT GIMER DCT AHVEC DCT RESMI DCT DEKOD DCT DISAK DCT ARKIP DCT ARNAV DCT LMG DCT UVELI DCT OSMOB DCT ARVID DCT PPN DCT NOLSA DCT ALEPO DCT VASUM DCT BANEV DCT BAN DCT GOTOR DCT KAMPO DCT MONTO DCT CRISA N864 VULPE VULPE2A
Aircraft B738/M-VGDW/C

Departure

Time 2026-04-20 19:40
Airport Münster Osnabrück Airport (EDDG)

Arrival

Time 2026-04-20 22:36
Airport Málaga-Costa del Sol Airport (LEMG)
Time Latitude Longitude Altitude Speed Heading
2026-04-20 19:09 52.13130 7.69207 163 ft 0 kts 198°
2026-04-20 19:28 52.13137 7.69210 162 ft 2 kts 198°
2026-04-20 19:28 52.13151 7.69218 162 ft 2 kts 198°
2026-04-20 19:28 52.13166 7.69225 162 ft 2 kts 198°
2026-04-20 19:29 52.13180 7.69232 162 ft 2 kts 199°
2026-04-20 19:29 52.13192 7.69242 162 ft 2 kts 214°
2026-04-20 19:29 52.13204 7.69258 162 ft 2 kts 226°
2026-04-20 19:29 52.13213 7.69276 162 ft 2 kts 237°
2026-04-20 19:30 52.13220 7.69297 162 ft 1 kts 249°
2026-04-20 19:30 52.13222 7.69307 162 ft 0 kts 252°
2026-04-20 19:34 52.13221 7.69303 162 ft 2 kts 252°
2026-04-20 19:35 52.13209 7.69240 162 ft 9 kts 251°
2026-04-20 19:35 52.13179 7.69096 162 ft 16 kts 252°
2026-04-20 19:35 52.13189 7.68940 162 ft 14 kts 328°
2026-04-20 19:35 52.13275 7.68888 162 ft 12 kts 341°
2026-04-20 19:36 52.13353 7.68876 162 ft 10 kts 25°
2026-04-20 19:36 52.13394 7.68986 162 ft 12 kts 72°
2026-04-20 19:36 52.13425 7.69137 162 ft 15 kts 72°
2026-04-20 19:36 52.13461 7.69315 162 ft 18 kts 70°
2026-04-20 19:37 52.13505 7.69522 162 ft 21 kts 70°
2026-04-20 19:37 52.13557 7.69763 162 ft 23 kts 72°
2026-04-20 19:37 52.13623 7.69992 159 ft 22 kts 42°
2026-04-20 19:37 52.13683 7.70031 158 ft 0 kts 357°
2026-04-20 19:38 52.13687 7.70030 158 ft 1 kts 356°
2026-04-20 19:38 52.13713 7.70024 158 ft 7 kts 347°
2026-04-20 19:38 52.13771 7.69962 158 ft 11 kts 279°
2026-04-20 19:38 52.13760 7.69884 159 ft 0 kts 250°
2026-04-20 19:39 52.13760 7.69883 159 ft 0 kts 250°
2026-04-20 19:39 52.13744 7.69809 160 ft 25 kts 252°
2026-04-20 19:39 52.13605 7.69147 162 ft 98 kts 251°
2026-04-20 19:40 52.13311 7.67762 162 ft 160 kts 252°
2026-04-20 19:40 52.12922 7.65949 709 ft 172 kts 252°
2026-04-20 19:40 52.12506 7.64119 1345 ft 185 kts 252°
2026-04-20 19:40 52.12077 7.62052 1862 ft 205 kts 252°
2026-04-20 19:41 52.11613 7.59822 2320 ft 218 kts 251°
2026-04-20 19:41 52.11091 7.57406 2792 ft 233 kts 251°
2026-04-20 19:41 52.10410 7.54978 3289 ft 246 kts 237°
2026-04-20 19:41 52.09130 7.53045 3596 ft 261 kts 202°
2026-04-20 19:42 52.07466 7.52219 4441 ft 254 kts 186°
2026-04-20 19:42 52.05659 7.51845 4873 ft 267 kts 182°
2026-04-20 19:42 52.03786 7.51539 4980 ft 276 kts 182°
2026-04-20 19:42 52.01890 7.51208 5117 ft 268 kts 182°
2026-04-20 19:43 52.00044 7.51056 5182 ft 268 kts 172°
2026-04-20 19:43 51.98213 7.51459 5188 ft 268 kts 166°
2026-04-20 19:43 51.96365 7.51994 5186 ft 266 kts 166°
2026-04-20 19:43 51.94556 7.52495 5190 ft 266 kts 166°
2026-04-20 19:44 51.92703 7.53012 5259 ft 280 kts 167°
2026-04-20 19:44 51.90722 7.53544 5592 ft 300 kts 167°
2026-04-20 19:44 51.88665 7.54091 6049 ft 314 kts 168°
2026-04-20 19:44 51.86660 7.54606 6717 ft 318 kts 167°
2026-04-20 19:45 51.84464 7.55172 7520 ft 320 kts 168°
2026-04-20 19:45 51.82247 7.55751 8243 ft 324 kts 168°
2026-04-20 19:45 51.80013 7.56335 9034 ft 325 kts 168°
2026-04-20 19:45 51.77854 7.56897 10054 ft 317 kts 168°
2026-04-20 19:46 51.75723 7.57455 10705 ft 322 kts 168°
2026-04-20 19:46 51.73458 7.57928 11035 ft 339 kts 175°
2026-04-20 19:46 51.71111 7.57574 11605 ft 349 kts 193°
2026-04-20 19:46 51.68953 7.56090 12235 ft 356 kts 210°
2026-04-20 19:47 51.66954 7.53862 12871 ft 360 kts 216°
2026-04-20 19:47 51.64976 7.51425 13536 ft 363 kts 217°
2026-04-20 19:47 51.62957 7.48899 14157 ft 367 kts 216°
2026-04-20 19:47 51.61042 7.46513 14791 ft 369 kts 216°
2026-04-20 19:48 51.59047 7.44039 15414 ft 372 kts 216°
2026-04-20 19:48 51.56998 7.41508 16024 ft 375 kts 216°
2026-04-20 19:48 51.54942 7.38977 16612 ft 378 kts 216°
2026-04-20 19:48 51.52943 7.36522 17158 ft 381 kts 216°
2026-04-20 19:49 51.51198 7.34380 17651 ft 383 kts 215°
2026-04-20 19:49 51.49283 7.32032 18085 ft 388 kts 215°
2026-04-20 19:49 51.46788 7.28978 18177 ft 392 kts 215°
2026-04-20 19:49 51.44754 7.26490 18180 ft 388 kts 215°
2026-04-20 19:50 51.42693 7.23973 18177 ft 385 kts 216°
2026-04-20 19:50 51.40573 7.21389 18168 ft 385 kts 216°
2026-04-20 19:50 51.38434 7.18784 18172 ft 385 kts 216°
2026-04-20 19:50 51.36344 7.16243 18166 ft 386 kts 216°
2026-04-20 19:51 51.34241 7.13687 18168 ft 385 kts 216°
2026-04-20 19:51 51.32107 7.11097 18160 ft 384 kts 216°
2026-04-20 19:51 51.29979 7.08519 18182 ft 386 kts 216°
2026-04-20 19:51 51.27847 7.05937 18668 ft 390 kts 216°
2026-04-20 19:52 51.25866 7.03540 19318 ft 389 kts 216°
2026-04-20 19:52 51.23653 7.00867 19863 ft 392 kts 215°
2026-04-20 19:52 51.21483 6.98250 20394 ft 395 kts 215°
2026-04-20 19:52 51.19335 6.95663 20892 ft 398 kts 215°
2026-04-20 19:53 51.17392 6.93327 21366 ft 400 kts 215°
2026-04-20 19:53 51.15009 6.90466 21932 ft 402 kts 215°
2026-04-20 19:53 51.12782 6.87793 22441 ft 405 kts 215°
2026-04-20 19:53 51.10611 6.85079 22911 ft 408 kts 219°
2026-04-20 19:54 51.08600 6.82145 23334 ft 412 kts 223°
2026-04-20 19:54 51.06556 6.78897 23804 ft 415 kts 224°
2026-04-20 19:54 51.04546 6.75629 24141 ft 421 kts 224°
2026-04-20 19:54 51.02510 6.72316 24170 ft 424 kts 224°
2026-04-20 19:55 51.00556 6.69146 24167 ft 420 kts 224°
2026-04-20 19:55 50.98512 6.65840 24175 ft 418 kts 224°
2026-04-20 19:55 50.96441 6.62502 24504 ft 423 kts 224°
2026-04-20 19:55 50.94427 6.59265 25009 ft 422 kts 224°
2026-04-20 19:56 50.92279 6.56484 25291 ft 424 kts 209°
2026-04-20 19:56 50.89707 6.54597 25708 ft 424 kts 200°
2026-04-20 19:56 50.87233 6.53174 26054 ft 424 kts 199°
2026-04-20 19:56 50.84237 6.51544 26475 ft 426 kts 199°
2026-04-20 19:57 50.81566 6.50073 26747 ft 429 kts 200°
2026-04-20 19:57 50.78739 6.48473 26882 ft 437 kts 200°
2026-04-20 19:57 50.75896 6.46828 27200 ft 440 kts 201°
2026-04-20 19:57 50.73003 6.45129 27534 ft 442 kts 202°
2026-04-20 19:58 50.70276 6.43515 27751 ft 446 kts 202°
2026-04-20 19:58 50.67387 6.41797 28142 ft 446 kts 203°
2026-04-20 19:58 50.64491 6.40072 28391 ft 449 kts 204°
2026-04-20 19:59 50.58655 6.36586 28722 ft 460 kts 204°
2026-04-20 19:59 50.55732 6.34843 29242 ft 455 kts 203°
2026-04-20 19:59 50.52840 6.33121 29589 ft 455 kts 204°
2026-04-20 19:59 50.49848 6.31339 29935 ft 455 kts 204°
2026-04-20 20:00 50.46950 6.29614 30104 ft 459 kts 205°
2026-04-20 20:00 50.41050 6.26107 30128 ft 455 kts 205°
2026-04-20 20:01 50.35237 6.22666 30131 ft 451 kts 206°
2026-04-20 20:01 50.29396 6.19208 30138 ft 452 kts 206°
2026-04-20 20:02 50.23680 6.15836 30130 ft 452 kts 206°
2026-04-20 20:02 50.17825 6.12390 30141 ft 451 kts 206°
2026-04-20 20:02 50.14881 6.10659 30252 ft 455 kts 206°
2026-04-20 20:03 50.12019 6.08982 30708 ft 451 kts 207°
2026-04-20 20:03 50.09140 6.07301 31151 ft 447 kts 207°
2026-04-20 20:03 50.06242 6.05610 31496 ft 445 kts 207°
2026-04-20 20:04 50.00447 6.02217 31813 ft 453 kts 208°
2026-04-20 20:04 49.97510 6.00505 32151 ft 451 kts 208°
2026-04-20 20:04 49.94613 5.98821 32492 ft 449 kts 208°
2026-04-20 20:04 49.91671 5.97113 32763 ft 449 kts 208°
2026-04-20 20:05 49.89129 5.95636 32962 ft 451 kts 208°
2026-04-20 20:05 49.83021 5.92069 33158 ft 459 kts 209°
2026-04-20 20:05 49.80164 5.90025 33379 ft 453 kts 216°
2026-04-20 20:06 49.77644 5.87498 33747 ft 439 kts 226°
2026-04-20 20:06 49.75457 5.84326 34119 ft 426 kts 234°
2026-04-20 20:06 49.73564 5.80856 34255 ft 424 kts 239°
2026-04-20 20:06 49.72008 5.77014 34411 ft 417 kts 249°
2026-04-20 20:07 49.70865 5.72953 34561 ft 415 kts 254°
2026-04-20 20:07 49.69881 5.68846 34772 ft 414 kts 255°
2026-04-20 20:07 49.68928 5.64693 34941 ft 414 kts 256°
2026-04-20 20:07 49.67969 5.60496 35090 ft 415 kts 256°
2026-04-20 20:08 49.67006 5.56320 35368 ft 418 kts 255°
2026-04-20 20:08 49.65057 5.47962 35888 ft 416 kts 255°
2026-04-20 20:08 49.64077 5.43778 36062 ft 416 kts 255°
2026-04-20 20:09 49.63087 5.39570 36234 ft 417 kts 255°
2026-04-20 20:09 49.61187 5.31146 36424 ft 420 kts 256°
2026-04-20 20:09 49.60276 5.26836 36624 ft 420 kts 256°
2026-04-20 20:10 49.59388 5.22624 36805 ft 420 kts 256°
2026-04-20 20:10 49.58522 5.18343 36989 ft 419 kts 258°
2026-04-20 20:10 49.57747 5.14018 37117 ft 419 kts 258°
2026-04-20 20:11 49.56265 5.05380 37142 ft 420 kts 259°
2026-04-20 20:11 49.54759 4.96762 37134 ft 417 kts 259°
2026-04-20 20:12 49.53234 4.88173 37147 ft 418 kts 258°
2026-04-20 20:12 49.51696 4.79584 37145 ft 418 kts 258°
2026-04-20 20:13 49.49386 4.66792 37131 ft 418 kts 258°
2026-04-20 20:13 49.47819 4.58165 37149 ft 421 kts 258°
2026-04-20 20:14 49.46235 4.49507 37170 ft 421 kts 258°
2026-04-20 20:14 49.44660 4.40930 37160 ft 419 kts 258°
2026-04-20 20:15 49.43079 4.32367 37158 ft 420 kts 258°
2026-04-20 20:15 49.41483 4.23751 37129 ft 421 kts 258°
2026-04-20 20:16 49.39885 4.15180 37155 ft 419 kts 258°
2026-04-20 20:16 49.38288 4.06642 37159 ft 420 kts 257°
2026-04-20 20:17 49.36381 3.98216 37161 ft 422 kts 250°
2026-04-20 20:17 49.33467 3.90373 37154 ft 428 kts 242°
2026-04-20 20:18 49.30193 3.82783 37149 ft 430 kts 241°
2026-04-20 20:18 49.26893 3.75190 37158 ft 429 kts 242°
2026-04-20 20:19 49.23605 3.67650 37157 ft 428 kts 241°
2026-04-20 20:19 49.20314 3.60128 37157 ft 430 kts 241°
2026-04-20 20:20 49.16990 3.52557 37154 ft 430 kts 241°
2026-04-20 20:20 49.13650 3.44978 37141 ft 430 kts 241°
2026-04-20 20:21 49.10326 3.37452 37142 ft 430 kts 241°
2026-04-20 20:21 49.07011 3.29967 37150 ft 431 kts 240°
2026-04-20 20:22 49.03670 3.22445 37157 ft 431 kts 240°
2026-04-20 20:22 49.00301 3.14883 37136 ft 429 kts 240°
2026-04-20 20:23 48.97008 3.07511 37159 ft 430 kts 240°
2026-04-20 20:23 48.93647 3.00007 37139 ft 429 kts 240°
2026-04-20 20:24 48.90324 2.92609 37156 ft 430 kts 240°
2026-04-20 20:24 48.86993 2.85211 37156 ft 428 kts 240°
2026-04-20 20:25 48.83676 2.77869 37148 ft 429 kts 240°
2026-04-20 20:25 48.80313 2.70440 37150 ft 429 kts 240°
2026-04-20 20:26 48.77006 2.63162 37159 ft 428 kts 240°
2026-04-20 20:26 48.73662 2.55819 37153 ft 428 kts 240°
2026-04-20 20:27 48.70337 2.48537 37144 ft 427 kts 240°
2026-04-20 20:27 48.66983 2.41213 37150 ft 428 kts 240°
2026-04-20 20:28 48.63644 2.33937 37144 ft 427 kts 240°
2026-04-20 20:28 48.60176 2.26655 37142 ft 428 kts 236°
2026-04-20 20:29 48.55711 2.20732 37142 ft 443 kts 216°
2026-04-20 20:29 48.50052 2.16911 37133 ft 454 kts 202°
2026-04-20 20:30 48.43917 2.14746 37123 ft 458 kts 197°
2026-04-20 20:30 48.37726 2.12872 37133 ft 457 kts 197°
2026-04-20 20:31 48.31532 2.11081 37119 ft 460 kts 192°
2026-04-20 20:31 48.25107 2.10781 37115 ft 468 kts 181°
2026-04-20 20:32 48.18670 2.11895 37117 ft 472 kts 176°
2026-04-20 20:32 48.12211 2.12791 37120 ft 464 kts 187°
2026-04-20 20:33 48.05894 2.11927 37118 ft 459 kts 193°
2026-04-20 20:33 47.99587 2.10652 37125 ft 459 kts 194°
2026-04-20 20:34 47.93331 2.09393 37121 ft 457 kts 193°
2026-04-20 20:34 47.87038 2.08164 37107 ft 457 kts 193°
2026-04-20 20:35 47.80795 2.06960 37135 ft 458 kts 193°
2026-04-20 20:35 47.74460 2.05749 37111 ft 456 kts 193°
2026-04-20 20:36 47.68208 2.04559 37106 ft 456 kts 194°
2026-04-20 20:36 47.62076 2.02713 37101 ft 449 kts 203°
2026-04-20 20:37 47.56274 1.99621 37091 ft 444 kts 207°
2026-04-20 20:37 47.50552 1.96282 37081 ft 443 kts 208°
2026-04-20 20:38 47.44862 1.92966 37085 ft 445 kts 207°
2026-04-20 20:38 47.39117 1.89640 37081 ft 444 kts 207°
2026-04-20 20:39 47.33396 1.86342 37077 ft 443 kts 207°
2026-04-20 20:39 47.27660 1.83046 37079 ft 443 kts 207°
2026-04-20 20:40 47.21971 1.79787 37071 ft 441 kts 207°
2026-04-20 20:40 47.16282 1.76551 37071 ft 443 kts 207°
2026-04-20 20:41 47.10533 1.73316 37065 ft 442 kts 207°
2026-04-20 20:41 47.04806 1.70101 37062 ft 442 kts 207°
2026-04-20 20:42 46.99097 1.66900 37060 ft 442 kts 207°
2026-04-20 20:42 46.93360 1.63688 37060 ft 442 kts 207°
2026-04-20 20:43 46.87700 1.60527 37056 ft 442 kts 207°
2026-04-20 20:43 46.81981 1.57341 37058 ft 442 kts 207°
2026-04-20 20:44 46.76228 1.54142 37050 ft 442 kts 207°
2026-04-20 20:44 46.70505 1.50968 37043 ft 442 kts 207°
2026-04-20 20:45 46.64784 1.47803 37036 ft 442 kts 207°
2026-04-20 20:45 46.59047 1.44636 37039 ft 442 kts 207°
2026-04-20 20:46 46.53330 1.41489 37036 ft 442 kts 207°
2026-04-20 20:46 46.47619 1.38350 37028 ft 442 kts 207°
2026-04-20 20:47 46.41877 1.35200 37027 ft 443 kts 207°
2026-04-20 20:47 46.36157 1.32070 37019 ft 443 kts 206°
2026-04-20 20:48 46.30388 1.28922 37022 ft 443 kts 206°
2026-04-20 20:48 46.24630 1.25787 37016 ft 442 kts 206°
2026-04-20 20:49 46.18921 1.22684 37008 ft 442 kts 206°
2026-04-20 20:49 46.13177 1.19570 37006 ft 442 kts 206°
2026-04-20 20:50 46.07450 1.16471 37012 ft 443 kts 206°
2026-04-20 20:50 46.01718 1.13377 37010 ft 443 kts 206°
2026-04-20 20:51 45.95961 1.10277 37006 ft 442 kts 206°
2026-04-20 20:51 45.90233 1.07200 37013 ft 441 kts 206°
2026-04-20 20:52 45.84605 1.04059 37006 ft 438 kts 210°
2026-04-20 20:52 45.79377 0.99759 37002 ft 430 kts 221°
2026-04-20 20:53 45.74763 0.94477 36994 ft 426 kts 225°
2026-04-20 20:53 45.70266 0.89063 36985 ft 426 kts 225°
2026-04-20 20:54 45.65737 0.83628 36974 ft 426 kts 225°
2026-04-20 20:54 45.61225 0.78240 36980 ft 426 kts 225°
2026-04-20 20:55 45.56670 0.72820 36965 ft 426 kts 225°
2026-04-20 20:55 45.52136 0.67439 36966 ft 426 kts 225°
2026-04-20 20:56 45.47595 0.62061 36964 ft 426 kts 225°
2026-04-20 20:56 45.43071 0.56719 36958 ft 425 kts 225°
2026-04-20 20:57 45.38535 0.51375 36948 ft 423 kts 225°
2026-04-20 20:57 45.33993 0.46034 36951 ft 424 kts 224°
2026-04-20 20:58 45.29491 0.40751 36940 ft 424 kts 224°
2026-04-20 20:58 45.24932 0.35413 36931 ft 424 kts 224°
2026-04-20 20:59 45.20406 0.30124 36939 ft 426 kts 224°
2026-04-20 20:59 45.15832 0.24794 36935 ft 424 kts 224°
2026-04-20 21:00 45.11289 0.19510 36936 ft 423 kts 224°
2026-04-20 21:00 45.06743 0.14231 36938 ft 425 kts 224°
2026-04-20 21:01 45.02197 0.08966 36928 ft 423 kts 224°
2026-04-20 21:01 44.97646 0.03706 36928 ft 424 kts 224°
2026-04-20 21:02 44.93090 -0.01550 36926 ft 425 kts 224°
2026-04-20 21:02 44.88609 -0.06706 36932 ft 423 kts 223°
2026-04-20 21:03 44.84017 -0.11980 36941 ft 423 kts 223°
2026-04-20 21:03 44.79483 -0.17178 36940 ft 423 kts 223°
2026-04-20 21:04 44.74942 -0.22373 36941 ft 423 kts 224°
2026-04-20 21:04 44.70361 -0.27600 36938 ft 422 kts 223°
2026-04-20 21:05 44.65754 -0.32698 36936 ft 425 kts 219°
2026-04-20 21:05 44.60641 -0.36941 36938 ft 429 kts 213°
2026-04-20 21:06 44.55388 -0.40824 36934 ft 429 kts 212°
2026-04-20 21:06 44.50095 -0.44712 36925 ft 431 kts 212°
2026-04-20 21:07 44.44764 -0.48620 36922 ft 431 kts 212°
2026-04-20 21:07 44.39473 -0.52490 36926 ft 430 kts 212°
2026-04-20 21:08 44.34179 -0.56354 36933 ft 431 kts 212°
2026-04-20 21:08 44.28888 -0.60208 36930 ft 430 kts 212°
2026-04-20 21:09 44.23551 -0.64089 36929 ft 431 kts 212°
2026-04-20 21:09 44.18279 -0.67915 36929 ft 433 kts 211°
2026-04-20 21:10 44.12958 -0.71767 36929 ft 433 kts 211°
2026-04-20 21:10 44.07632 -0.75614 36928 ft 431 kts 211°
2026-04-20 21:11 44.02303 -0.79457 36929 ft 431 kts 211°
2026-04-20 21:11 43.96969 -0.83295 36927 ft 431 kts 211°
2026-04-20 21:12 43.91663 -0.87106 36929 ft 432 kts 211°
2026-04-20 21:12 43.86333 -0.90926 36926 ft 432 kts 211°
2026-04-20 21:13 43.81028 -0.94720 36927 ft 433 kts 211°
2026-04-20 21:13 43.75678 -0.98538 36926 ft 432 kts 211°
2026-04-20 21:14 43.70393 -1.02303 36925 ft 432 kts 211°
2026-04-20 21:14 43.65035 -1.06113 36927 ft 433 kts 211°
2026-04-20 21:15 43.59690 -1.09904 36931 ft 433 kts 211°
2026-04-20 21:15 43.54359 -1.13679 36937 ft 433 kts 211°
2026-04-20 21:16 43.49037 -1.17439 36938 ft 432 kts 211°
2026-04-20 21:16 43.43657 -1.21233 36944 ft 433 kts 211°
2026-04-20 21:17 43.38323 -1.24987 36940 ft 433 kts 211°
2026-04-20 21:17 43.32980 -1.28739 36950 ft 433 kts 211°
2026-04-20 21:18 43.27638 -1.32484 36950 ft 433 kts 211°
2026-04-20 21:18 43.22306 -1.36213 36959 ft 433 kts 211°
2026-04-20 21:19 43.16954 -1.39950 36974 ft 434 kts 211°
2026-04-20 21:20 43.08910 -1.45552 36988 ft 432 kts 211°
2026-04-20 21:20 43.03599 -1.49248 36996 ft 431 kts 211°
2026-04-20 21:21 42.98250 -1.52972 37003 ft 433 kts 211°
2026-04-20 21:21 42.92959 -1.56645 36993 ft 431 kts 211°
2026-04-20 21:22 42.87650 -1.60323 36984 ft 431 kts 211°
2026-04-20 21:22 42.82293 -1.64030 36978 ft 432 kts 211°
2026-04-20 21:23 42.76983 -1.67697 36968 ft 432 kts 210°
2026-04-20 21:23 42.71609 -1.71391 36966 ft 433 kts 210°
2026-04-20 21:24 42.66195 -1.75039 36963 ft 433 kts 210°
2026-04-20 21:24 42.60803 -1.78656 36958 ft 433 kts 210°
2026-04-20 21:25 42.55416 -1.82265 36952 ft 433 kts 210°
2026-04-20 21:25 42.50077 -1.85838 36945 ft 432 kts 210°
2026-04-20 21:26 42.44675 -1.89448 36940 ft 434 kts 210°
2026-04-20 21:26 42.39300 -1.93034 36945 ft 434 kts 210°
2026-04-20 21:27 42.33898 -1.96630 36952 ft 434 kts 210°
2026-04-20 21:27 42.28514 -2.00214 36951 ft 434 kts 210°
2026-04-20 21:28 42.23105 -2.03806 36971 ft 434 kts 210°
2026-04-20 21:28 42.17707 -2.07377 36981 ft 433 kts 210°
2026-04-20 21:29 42.12296 -2.10950 36996 ft 434 kts 210°
2026-04-20 21:29 42.06907 -2.14501 37007 ft 434 kts 210°
2026-04-20 21:30 42.01486 -2.18067 37021 ft 435 kts 210°
2026-04-20 21:30 41.96066 -2.21627 37021 ft 435 kts 210°
2026-04-20 21:31 41.90652 -2.25177 37030 ft 435 kts 210°
2026-04-20 21:31 41.85326 -2.28660 37031 ft 433 kts 210°
2026-04-20 21:32 41.79911 -2.32195 37034 ft 432 kts 210°
2026-04-20 21:32 41.74490 -2.35729 37036 ft 433 kts 209°
2026-04-20 21:33 41.69090 -2.39239 37036 ft 432 kts 209°
2026-04-20 21:33 41.63697 -2.42742 37033 ft 432 kts 209°
2026-04-20 21:34 41.58284 -2.46250 37031 ft 433 kts 209°
2026-04-20 21:34 41.52916 -2.49721 37025 ft 431 kts 209°
2026-04-20 21:35 41.47526 -2.53201 37024 ft 432 kts 209°
2026-04-20 21:35 41.42117 -2.56688 37024 ft 432 kts 209°
2026-04-20 21:36 41.36752 -2.60137 37022 ft 431 kts 209°
2026-04-20 21:36 41.31466 -2.63845 37027 ft 429 kts 215°
2026-04-20 21:37 41.26534 -2.68257 37030 ft 429 kts 217°
2026-04-20 21:37 41.21639 -2.72792 37023 ft 428 kts 217°
2026-04-20 21:38 41.16758 -2.77294 37016 ft 428 kts 217°
2026-04-20 21:38 41.11859 -2.81795 37015 ft 428 kts 217°
2026-04-20 21:39 41.06973 -2.86271 37012 ft 427 kts 217°
2026-04-20 21:39 41.02083 -2.90743 37006 ft 428 kts 217°
2026-04-20 21:40 40.97198 -2.95200 37003 ft 428 kts 217°
2026-04-20 21:40 40.92278 -2.99679 37006 ft 428 kts 217°
2026-04-20 21:41 40.87382 -3.04127 37007 ft 428 kts 217°
2026-04-20 21:41 40.82503 -3.08553 37008 ft 428 kts 217°
2026-04-20 21:42 40.77591 -3.13000 37296 ft 430 kts 217°
2026-04-20 21:42 40.75135 -3.15221 36697 ft 428 kts 217°
2026-04-20 21:42 40.72683 -3.17433 36980 ft 420 kts 217°
2026-04-20 21:43 40.67822 -3.21819 36996 ft 429 kts 216°
2026-04-20 21:43 40.62916 -3.26236 37234 ft 431 kts 216°
2026-04-20 21:43 40.60460 -3.28444 37007 ft 428 kts 216°
2026-04-20 21:44 40.58007 -3.30647 36983 ft 422 kts 216°
2026-04-20 21:44 40.53165 -3.34992 36980 ft 425 kts 216°
2026-04-20 21:45 40.48290 -3.39359 36976 ft 428 kts 216°
2026-04-20 21:45 40.43412 -3.43718 36968 ft 426 kts 216°
2026-04-20 21:46 40.38514 -3.48089 36967 ft 427 kts 216°
2026-04-20 21:46 40.33576 -3.52487 36968 ft 427 kts 216°
2026-04-20 21:47 40.28652 -3.56865 36967 ft 427 kts 216°
2026-04-20 21:47 40.23749 -3.61217 36967 ft 427 kts 216°
2026-04-20 21:48 40.18854 -3.65553 36961 ft 428 kts 215°
2026-04-20 21:48 40.13940 -3.69897 36963 ft 427 kts 215°
2026-04-20 21:49 40.09019 -3.74241 36949 ft 429 kts 215°
2026-04-20 21:49 40.04063 -3.78608 36942 ft 428 kts 215°
2026-04-20 21:50 39.99141 -3.82939 36940 ft 428 kts 215°
2026-04-20 21:50 39.94222 -3.87259 36940 ft 427 kts 215°
2026-04-20 21:51 39.89304 -3.91569 36941 ft 429 kts 215°
2026-04-20 21:51 39.84341 -3.95911 36947 ft 429 kts 215°
2026-04-20 21:52 39.79406 -4.00221 36954 ft 430 kts 215°
2026-04-20 21:52 39.74437 -4.04554 36961 ft 429 kts 215°
2026-04-20 21:53 39.69519 -4.08834 36965 ft 428 kts 215°
2026-04-20 21:53 39.64558 -4.13145 36974 ft 428 kts 215°
2026-04-20 21:54 39.59620 -4.17427 36983 ft 429 kts 215°
2026-04-20 21:54 39.54660 -4.21721 36991 ft 427 kts 215°
2026-04-20 21:55 39.49720 -4.25992 36990 ft 427 kts 215°
2026-04-20 21:55 39.44798 -4.30239 36984 ft 428 kts 215°
2026-04-20 21:56 39.39841 -4.34508 36974 ft 428 kts 215°
2026-04-20 21:56 39.34884 -4.38770 36968 ft 427 kts 215°
2026-04-20 21:57 39.29940 -4.43013 36969 ft 428 kts 215°
2026-04-20 21:57 39.24945 -4.47175 36973 ft 427 kts 211°
2026-04-20 21:58 39.19436 -4.50090 36972 ft 430 kts 195°
2026-04-20 21:58 39.13543 -4.51538 36959 ft 432 kts 192°
2026-04-20 21:59 39.07641 -4.52770 36947 ft 432 kts 191°
2026-04-20 21:59 39.01725 -4.54000 36948 ft 432 kts 191°
2026-04-20 22:00 38.95764 -4.55243 36947 ft 432 kts 191°
2026-04-20 22:00 38.89881 -4.56471 36952 ft 432 kts 191°
2026-04-20 22:01 38.83922 -4.57712 36948 ft 432 kts 191°
2026-04-20 22:01 38.77969 -4.58951 36940 ft 431 kts 191°
2026-04-20 22:02 38.72060 -4.60179 36941 ft 431 kts 191°
2026-04-20 22:02 38.66116 -4.61413 36943 ft 431 kts 191°
2026-04-20 22:03 38.60206 -4.62638 36946 ft 431 kts 191°
2026-04-20 22:03 38.54272 -4.63865 36946 ft 431 kts 191°
2026-04-20 22:04 38.48360 -4.65086 36946 ft 430 kts 191°
2026-04-20 22:04 38.42423 -4.66310 36950 ft 431 kts 191°
2026-04-20 22:05 38.36477 -4.67535 36954 ft 431 kts 191°
2026-04-20 22:05 38.30580 -4.68746 36961 ft 431 kts 191°
2026-04-20 22:06 38.24647 -4.69963 36963 ft 431 kts 191°
2026-04-20 22:06 38.18721 -4.71176 36959 ft 430 kts 191°
2026-04-20 22:07 38.12817 -4.72383 36950 ft 430 kts 191°
2026-04-20 22:07 38.06940 -4.73583 36949 ft 430 kts 191°
2026-04-20 22:08 38.01070 -4.74779 36370 ft 424 kts 191°
2026-04-20 22:08 37.98128 -4.75378 35226 ft 433 kts 191°
2026-04-20 22:08 37.95124 -4.75992 34081 ft 442 kts 191°
2026-04-20 22:08 37.92081 -4.76611 33248 ft 443 kts 191°
2026-04-20 22:09 37.89066 -4.77223 32438 ft 445 kts 191°
2026-04-20 22:09 37.86057 -4.77928 31570 ft 446 kts 194°
2026-04-20 22:09 37.83061 -4.78947 30658 ft 447 kts 200°
2026-04-20 22:09 37.80220 -4.80439 29761 ft 447 kts 208°
2026-04-20 22:10 37.77484 -4.82327 28838 ft 449 kts 212°
2026-04-20 22:10 37.74892 -4.84511 28046 ft 446 kts 219°
2026-04-20 22:10 37.72580 -4.87065 27529 ft 439 kts 225°
2026-04-20 22:10 37.70532 -4.89855 26833 ft 436 kts 231°
2026-04-20 22:11 37.68658 -4.92868 26369 ft 428 kts 233°
2026-04-20 22:11 37.66932 -4.95829 26167 ft 414 kts 234°
2026-04-20 22:11 37.65258 -4.98737 25991 ft 401 kts 234°
2026-04-20 22:11 37.63559 -5.01437 25814 ft 389 kts 229°
2026-04-20 22:12 37.61602 -5.03713 25661 ft 377 kts 217°
2026-04-20 22:12 37.59425 -5.05439 25498 ft 364 kts 212°
2026-04-20 22:12 37.57258 -5.06979 25227 ft 352 kts 211°
2026-04-20 22:12 37.55141 -5.08456 24794 ft 348 kts 211°
2026-04-20 22:13 37.52972 -5.09840 24326 ft 347 kts 205°
2026-04-20 22:13 37.50688 -5.10779 23865 ft 347 kts 194°
2026-04-20 22:13 37.48262 -5.11138 23378 ft 348 kts 184°
2026-04-20 22:13 37.45872 -5.11157 22939 ft 346 kts 182°
2026-04-20 22:14 37.43460 -5.11109 22483 ft 345 kts 181°
2026-04-20 22:14 37.41044 -5.11050 21716 ft 349 kts 180°
2026-04-20 22:14 37.38632 -5.10658 20833 ft 357 kts 169°
2026-04-20 22:14 37.36251 -5.09661 19942 ft 364 kts 158°
2026-04-20 22:15 37.33999 -5.08195 19039 ft 370 kts 152°
2026-04-20 22:15 37.31766 -5.06541 18092 ft 374 kts 151°
2026-04-20 22:15 37.29538 -5.04862 17108 ft 377 kts 152°
2026-04-20 22:15 37.27250 -5.03347 16127 ft 377 kts 159°
2026-04-20 22:16 37.24754 -5.02507 15541 ft 364 kts 176°
2026-04-20 22:16 37.22264 -5.02378 15283 ft 345 kts 180°
2026-04-20 22:16 37.19912 -5.02345 15015 ft 329 kts 181°
2026-04-20 22:16 37.17651 -5.02318 14773 ft 316 kts 181°
2026-04-20 22:17 37.15474 -5.02291 14440 ft 310 kts 181°
2026-04-20 22:17 37.13338 -5.02264 14043 ft 307 kts 181°
2026-04-20 22:17 37.11198 -5.02236 13647 ft 303 kts 180°
2026-04-20 22:17 37.09129 -5.02207 13300 ft 296 kts 180°
2026-04-20 22:18 37.07098 -5.02178 13150 ft 284 kts 180°
2026-04-20 22:18 37.05158 -5.02150 12880 ft 277 kts 180°
2026-04-20 22:18 37.03218 -5.02123 12519 ft 274 kts 180°
2026-04-20 22:18 37.01322 -5.02097 12203 ft 271 kts 180°
2026-04-20 22:19 36.99420 -5.02070 11878 ft 269 kts 180°
2026-04-20 22:19 36.97569 -5.02028 11565 ft 267 kts 177°
2026-04-20 22:19 36.95753 -5.01542 11242 ft 267 kts 156°
2026-04-20 22:19 36.94291 -5.00155 11067 ft 261 kts 130°
2026-04-20 22:20 36.93357 -4.98226 10847 ft 257 kts 112°
2026-04-20 22:20 36.93034 -4.96012 10526 ft 262 kts 91°
2026-04-20 22:20 36.93334 -4.93802 10220 ft 264 kts 64°
2026-04-20 22:20 36.94482 -4.92000 9979 ft 262 kts 40°
2026-04-20 22:21 36.95958 -4.90726 9949 ft 257 kts 23°
2026-04-20 22:21 36.97704 -4.90292 9953 ft 259 kts 359°
2026-04-20 22:21 36.99503 -4.90358 9936 ft 259 kts 357°
2026-04-20 22:21 37.01307 -4.90419 9927 ft 255 kts 358°
2026-04-20 22:22 37.03063 -4.90451 9925 ft 255 kts 358°
2026-04-20 22:22 37.04847 -4.90478 9933 ft 255 kts 358°
2026-04-20 22:22 37.06631 -4.90501 9927 ft 254 kts 358°
2026-04-20 22:22 37.08402 -4.90524 9930 ft 254 kts 358°
2026-04-20 22:23 37.10175 -4.90546 9927 ft 253 kts 358°
2026-04-20 22:23 37.11947 -4.90569 9923 ft 253 kts 358°
2026-04-20 22:23 37.13738 -4.90591 9916 ft 253 kts 358°
2026-04-20 22:23 37.15499 -4.90612 9914 ft 253 kts 360°
2026-04-20 22:24 37.17260 -4.90319 9922 ft 255 kts 18°
2026-04-20 22:24 37.18744 -4.89120 9923 ft 257 kts 49°
2026-04-20 22:24 37.19643 -4.87166 9936 ft 259 kts 71°
2026-04-20 22:24 37.19926 -4.84938 9938 ft 259 kts 90°
2026-04-20 22:25 37.19459 -4.82765 9915 ft 258 kts 124°
2026-04-20 22:25 37.18177 -4.81230 9939 ft 257 kts 147°
2026-04-20 22:25 37.16590 -4.80237 9931 ft 255 kts 167°
2026-04-20 22:25 37.14827 -4.80066 9941 ft 253 kts 182°
2026-04-20 22:26 37.13044 -4.80121 9933 ft 253 kts 181°
2026-04-20 22:26 37.11291 -4.80133 9760 ft 251 kts 180°
2026-04-20 22:26 37.09547 -4.80121 9386 ft 253 kts 180°
2026-04-20 22:27 37.06098 -4.80087 8811 ft 250 kts 180°
2026-04-20 22:27 37.04355 -4.80068 8530 ft 249 kts 180°
2026-04-20 22:27 37.02636 -4.80049 8256 ft 248 kts 180°
2026-04-20 22:27 37.00900 -4.80030 7979 ft 248 kts 180°
2026-04-20 22:28 36.99187 -4.80011 7686 ft 246 kts 180°
2026-04-20 22:28 36.97460 -4.79992 7396 ft 243 kts 180°
2026-04-20 22:28 36.95784 -4.79974 7101 ft 238 kts 180°
2026-04-20 22:28 36.94140 -4.79956 6834 ft 231 kts 180°
2026-04-20 22:29 36.92563 -4.79701 6603 ft 224 kts 164°
2026-04-20 22:29 36.91112 -4.79058 6505 ft 213 kts 160°
2026-04-20 22:29 36.89702 -4.78426 6293 ft 217 kts 161°
2026-04-20 22:29 36.88241 -4.77790 5702 ft 230 kts 161°
2026-04-20 22:30 36.86706 -4.77060 4989 ft 243 kts 154°
2026-04-20 22:30 36.85186 -4.76061 4350 ft 250 kts 151°
2026-04-20 22:30 36.83691 -4.75044 4177 ft 235 kts 150°
2026-04-20 22:30 36.82321 -4.74119 4196 ft 215 kts 151°
2026-04-20 22:31 36.81032 -4.73249 4193 ft 205 kts 150°
2026-04-20 22:31 36.79831 -4.72440 4202 ft 187 kts 150°
2026-04-20 22:31 36.78719 -4.71689 4190 ft 177 kts 150°
2026-04-20 22:31 36.77765 -4.70695 4067 ft 185 kts 126°
2026-04-20 22:32 36.77053 -4.69287 3599 ft 198 kts 121°
2026-04-20 22:32 36.76313 -4.67815 3087 ft 203 kts 121°
2026-04-20 22:32 36.75641 -4.66297 2806 ft 196 kts 117°
2026-04-20 22:32 36.75018 -4.64811 2550 ft 190 kts 117°
2026-04-20 22:33 36.74415 -4.63382 2296 ft 184 kts 117°
2026-04-20 22:33 36.73831 -4.61991 2056 ft 178 kts 117°
2026-04-20 22:33 36.73261 -4.60637 1807 ft 172 kts 117°
2026-04-20 22:33 36.72724 -4.59360 1577 ft 165 kts 117°
2026-04-20 22:34 36.72207 -4.58131 1364 ft 154 kts 117°
2026-04-20 22:34 36.71711 -4.56953 1156 ft 153 kts 117°
2026-04-20 22:34 36.71222 -4.55790 953 ft 154 kts 117°
2026-04-20 22:34 36.70723 -4.54606 756 ft 154 kts 117°
2026-04-20 22:35 36.70226 -4.53427 501 ft 156 kts 117°
2026-04-20 22:35 36.69741 -4.52250 313 ft 147 kts 117°
2026-04-20 22:35 36.69269 -4.51145 116 ft 140 kts 118°
2026-04-20 22:35 36.68830 -4.50098 29 ft 127 kts 118°
2026-04-20 22:36 36.68517 -4.49370 28 ft 62 kts 117°
2026-04-20 22:36 36.68367 -4.49048 28 ft 42 kts 130°
2026-04-20 22:36 36.68165 -4.48850 28 ft 35 kts 160°
2026-04-20 22:36 36.67952 -4.48895 30 ft 27 kts 158°
2026-04-20 22:37 36.67877 -4.48696 28 ft 25 kts 114°
2026-04-20 22:37 36.67877 -4.48519 28 ft 22 kts 26°
2026-04-20 22:37 36.67992 -4.48587 27 ft 19 kts 304°
2026-04-20 22:37 36.68064 -4.48747 28 ft 22 kts 298°
2026-04-20 22:38 36.68144 -4.48935 28 ft 26 kts 297°
2026-04-20 22:38 36.68235 -4.49155 30 ft 30 kts 297°
2026-04-20 22:38 36.68222 -4.49375 32 ft 26 kts 221°
2026-04-20 22:38 36.68090 -4.49516 36 ft 23 kts 222°
2026-04-20 22:39 36.67977 -4.49649 38 ft 22 kts 223°
2026-04-20 22:39 36.67858 -4.49787 40 ft 23 kts 221°
2026-04-20 22:39 36.67722 -4.49800 41 ft 23 kts 133°
2026-04-20 22:39 36.67607 -4.49644 41 ft 25 kts 130°
2026-04-20 22:40 36.67480 -4.49467 38 ft 28 kts 133°
2026-04-20 22:40 36.67347 -4.49281 37 ft 27 kts 131°
2026-04-20 22:40 36.67218 -4.49101 33 ft 27 kts 132°
2026-04-20 22:40 36.67199 -4.48959 31 ft 14 kts 41°
2026-04-20 22:41 36.67279 -4.48906 32 ft 11 kts 350°
2026-04-20 22:41 36.67325 -4.48937 33 ft 4 kts 329°
2026-04-20 22:41 36.67332 -4.48942 34 ft 0 kts 328°